New Bern, NC

6:06 PM EDT on April 26, 2017 (GMT -0400)
Craven County Regional

Weather History for KEWN - August, 2013

Change the Weather History Date:

Sunday, August 11, 2013

  Actual Average Record
Temperature  
Mean Temperature 85 °F 80 °F  
Max Temperature 95 °F 89 °F 96 °F (1957)
Min Temperature 75 °F 71 °F 59 °F (2002)
Degree Days  
Heating Degree Days 0 0  
Month to date heating degree days 0 0  
Since 1 June heating degree days 0 1  
Since 1 July heating degree days 0 0  
Cooling Degree Days 20 15  
Month to date cooling degree days 173 165  
Year to date cooling degree days 1355 1255  
Since 1 June cooling degree days 1099 1012  
Growing Degree Days 35 (Base 50)    
Moisture  
Dew Point 75 °F    
Average Humidity 74    
Maximum Humidity 94    
Minimum Humidity 53    
Precipitation  
Precipitation 0.01 in 0.23 in 4.93 in (1955)
Month to date precipitation 2.60 2.47  
Year to date precipitation 25.89 32.62  
Snow  
Snow 0.00 in - - ()
Month to date snowfall 0.0  
Since 1 July snowfall 0.0  
Snow Depth 0.00 in    
Sea Level Pressure  
Sea Level Pressure 30.09 in    
Wind  
Wind Speed 5 mph (WSW)    
Max Wind Speed 14 mph    
Max Gust Speed 20 mph    
Visibility 9 miles    
Events Rain    
T = Trace of Precipitation, MM = Missing Value Source: NWS Daily Summary

Daily Weather History Graph

Daily Weather History Graph

Search for Another Location

Airport or City:

Trip Planner

Search our weather history database for the weather conditions in past years. The results will help you decide how hot, cold, wet, or windy it might be!

Date:

Astronomy

Aug. 11, 2013 Rise Set
Actual Time 6:25 AM EDT 8:00 PM EDT
Civil Twilight 5:58 AM EDT 8:27 PM EDT
Nautical Twilight 5:25 AM EDT 9:00 PM EDT
Astronomical Twilight 4:51 AM EDT 9:34 PM EDT
Moon 10:57 AM EDT (8/11) 10:29 PM EDT (8/11)
Length of Visible Light 14h 29m
Length of Day
13h 35m
Waxing Crescent, 22% of the Moon is Illuminated
Aug 11
Waxing Crescent
Aug 14
First Quarter
Aug 20
Full
Aug 28
Last Quarter
Sep 5
New

Hourly Weather History & Observations

Time (EDT) Temp. Heat Index Dew Point Humidity Pressure Visibility Wind Dir Wind Speed Gust Speed Precip Events Conditions
12:54 AM 75.9 °F - 73.0 °F 91% 30.09 in 10.0 mi Calm Calm - N/A   Clear
1:54 AM 75.0 °F - 73.0 °F 94% 30.09 in 9.0 mi Calm Calm - N/A   Clear
2:54 AM 75.9 °F - 73.9 °F 94% 30.08 in 7.0 mi Calm Calm - N/A   Clear
3:54 AM 75.0 °F - 73.0 °F 94% 30.09 in 10.0 mi Calm Calm - N/A   Clear
4:54 AM 75.0 °F - 73.0 °F 94% 30.09 in 10.0 mi SW 4.6 mph - N/A   Clear
5:54 AM 75.9 °F - 73.9 °F 94% 30.11 in 9.0 mi Calm Calm - N/A   Clear
6:49 AM 75.2 °F - 73.4 °F 94% 30.12 in 7.0 mi Calm Calm - N/A   Scattered Clouds
6:54 AM 77.0 °F - 73.9 °F 90% 30.12 in 7.0 mi West 3.5 mph - N/A   Mostly Cloudy
7:23 AM 77.0 °F - 75.2 °F 94% 30.12 in 6.0 mi WNW 3.5 mph - N/A   Mostly Cloudy
7:54 AM 78.1 °F - 75.0 °F 90% 30.13 in 6.0 mi West 4.6 mph - N/A   Overcast
8:34 AM 80.6 °F 86.2 °F 75.2 °F 84% 30.13 in 9.0 mi West 5.8 mph - N/A   Scattered Clouds
8:54 AM 81.0 °F 87.3 °F 75.9 °F 85% 30.13 in 10.0 mi West 4.6 mph - N/A   Partly Cloudy
9:54 AM 84.0 °F 92.6 °F 75.9 °F 76% 30.12 in 10.0 mi Variable 4.6 mph - N/A   Clear
10:54 AM 87.1 °F 97.3 °F 75.9 °F 69% 30.12 in 10.0 mi Variable 4.6 mph - N/A   Clear
11:54 AM 90.0 °F 102.5 °F 77.0 °F 65% 30.11 in 10.0 mi West 4.6 mph - N/A   Clear
12:54 PM 91.9 °F 105.9 °F 77.0 °F 62% 30.10 in 10.0 mi West 5.8 mph - N/A   Clear
1:54 PM 93.0 °F 105.3 °F 75.9 °F 57% 30.07 in 10.0 mi West 6.9 mph - N/A   Clear
2:54 PM 95.0 °F 108.2 °F 75.9 °F 54% 30.06 in 10.0 mi West 6.9 mph - N/A   Partly Cloudy
3:54 PM 86.0 °F 96.0 °F 75.9 °F 72% 30.05 in 10.0 mi South 9.2 mph - N/A   Partly Cloudy
4:54 PM 87.1 °F 95.4 °F 73.9 °F 65% 30.04 in 10.0 mi SW 8.1 mph - N/A   Clear
5:54 PM 87.1 °F 96.3 °F 75.0 °F 67% 30.04 in 10.0 mi SSW 5.8 mph - N/A   Partly Cloudy
6:54 PM 84.9 °F 93.3 °F 75.0 °F 72% 30.04 in 10.0 mi WSW 4.6 mph - N/A   Clear
7:54 PM 82.9 °F 91.8 °F 77.0 °F 82% 30.06 in 10.0 mi SW 5.8 mph - N/A   Clear
8:54 PM 82.0 °F 90.2 °F 77.0 °F 85% 30.03 in 10.0 mi SSW 4.6 mph - 0.00 in Rain Light Rain
9:54 PM 80.1 °F 85.4 °F 75.9 °F 87% 30.07 in 10.0 mi South 3.5 mph - 0.01 in   Clear
10:54 PM 79.0 °F - 75.0 °F 88% 30.07 in 10.0 mi SSW 3.5 mph - N/A   Scattered Clouds
11:54 PM 81.0 °F 87.3 °F 75.9 °F 85% 30.08 in 10.0 mi Variable 5.8 mph - N/A   Mostly Cloudy